Weather History for Gwinner, ND

Change the Weather History Date:

Sunday, January 13, 2013

  Actual Average (KP67) Record (KP67)
Temperature  
Mean Temperature 7 °F -  
Max Temperature 14 °F 13 °F 0 °F (1997)
Min Temperature 0 °F -1 °F -16 °F (1998)
Degree Days  
Heating Degree Days 58    
Moisture  
Dew Point -2 °F    
Average Humidity 72    
Maximum Humidity 85    
Minimum Humidity 66    
Precipitation  
Precipitation 0.00 in - - ()
Sea Level Pressure  
Sea Level Pressure 30.16 in    
Wind  
Wind Speed - (North)    
Max Wind Speed -    
Max Gust Speed -    
Visibility 10 miles    
Events      
Averages and records for this station are not official NWS values.
T = Trace of Precipitation, MM = Missing Value Source: NWS Daily Summary

Daily Weather History Graph

Daily Weather History Graph

Search for Another Location

Airport:

Trip Planner

Search our weather history database for the weather conditions in past years. The results will help you decide how hot, cold, wet, or windy it might be!

Date:

Astronomy

Jan. 13, 2013 Rise Set
Actual Time 8:10 AM CST 5:09 PM CST
Civil Twilight 7:36 AM CST 5:42 PM CST
Nautical Twilight 6:59 AM CST 6:20 PM CST
Astronomical Twilight 6:23 AM CST 6:56 PM CST
Moon 8:59 AM CST (1/13) 8:00 PM CST (1/13)
Length of Visible Light 10h 06m
Length of Day
8h 58m
Waxing Crescent, 5% of the Moon is Illuminated
Jan 13
Waxing Crescent
Jan 18
First Quarter
Jan 26
Full
Feb 3
Last Quarter
Feb 10
New

Hourly Weather History & Observations

Time (CST) Temp. Dew Point Humidity Pressure Visibility Wind Dir Wind Speed Gust Speed Precip Events Conditions
12:15 AM 1.4 °F -5.8 °F 72% 30.15 in 10.0 mi North - - 0.00 in   Clear
12:35 AM 3.2 °F -5.8 °F 66% 30.15 in 10.0 mi North - - 0.00 in   Clear
12:55 AM 1.4 °F -5.8 °F 72% 30.15 in 10.0 mi North - - 0.00 in   Clear
1:15 AM 1.4 °F -5.8 °F 72% 30.15 in 10.0 mi North - - 0.00 in   Clear
1:35 AM 1.4 °F -5.8 °F 72% 30.14 in 10.0 mi North - - 0.00 in   Clear
1:55 AM 1.4 °F -5.8 °F 72% 30.14 in 10.0 mi North - - 0.00 in   Clear
2:15 AM 1.4 °F -7.6 °F 66% 30.13 in 10.0 mi North - - 0.00 in   Clear
2:35 AM -0.4 °F -7.6 °F 72% 30.13 in 10.0 mi North - - 0.00 in   Clear
2:55 AM -0.4 °F -7.6 °F 72% 30.14 in 10.0 mi North - - 0.00 in   Clear
3:15 AM -0.4 °F -7.6 °F 72% 30.13 in 10.0 mi North - - 0.00 in   Clear
3:35 AM -0.4 °F -7.6 °F 72% 30.12 in 10.0 mi North - - 0.00 in   Clear
3:55 AM 1.4 °F -5.8 °F 72% 30.12 in 10.0 mi North - - 0.00 in   Clear
4:15 AM 1.4 °F -5.8 °F 72% 30.12 in 10.0 mi North - - 0.00 in   Clear
4:35 AM 1.4 °F -5.8 °F 72% 30.13 in 10.0 mi North - - 0.00 in   Clear
4:55 AM 1.4 °F -5.8 °F 72% 30.13 in 10.0 mi North - - 0.00 in   Clear
5:15 AM 3.2 °F -5.8 °F 66% 30.12 in 10.0 mi North - - 0.00 in   Clear
5:35 AM 3.2 °F -5.8 °F 66% 30.13 in 10.0 mi North - - 0.00 in   Clear
5:55 AM 3.2 °F -5.8 °F 66% 30.13 in 10.0 mi North - - 0.00 in   Clear
6:15 AM 3.2 °F -5.8 °F 66% 30.14 in 10.0 mi North - - 0.00 in   Clear
6:35 AM 3.2 °F -5.8 °F 66% 30.14 in 10.0 mi North - - 0.00 in   Clear
6:55 AM 3.2 °F -5.8 °F 66% 30.13 in 10.0 mi North - - 0.00 in   Clear
7:15 AM 3.2 °F -5.8 °F 66% 30.13 in 10.0 mi North - - 0.00 in   Clear
7:35 AM 3.2 °F -5.8 °F 66% 30.14 in 10.0 mi North - - 0.00 in   Clear
7:55 AM 3.2 °F -5.8 °F 66% 30.14 in 10.0 mi North - - 0.00 in   Clear
8:15 AM 3.2 °F -5.8 °F 66% 30.15 in 10.0 mi North - - 0.00 in   Clear
8:35 AM 3.2 °F -4.0 °F 72% 30.15 in 10.0 mi North - - 0.00 in   Clear
8:55 AM 5.0 °F -4.0 °F 66% 30.16 in 10.0 mi North - - 0.00 in   Clear
9:15 AM 5.0 °F -4.0 °F 66% 30.17 in 10.0 mi North - - 0.00 in   Clear
9:35 AM 5.0 °F -4.0 °F 66% 30.17 in 10.0 mi North - - 0.00 in   Clear
9:55 AM 5.0 °F -4.0 °F 66% 30.18 in 10.0 mi North - - 0.00 in   Clear
10:15 AM 5.0 °F -2.2 °F 72% 30.17 in 10.0 mi North - - 0.00 in   Clear
10:35 AM 6.8 °F -2.2 °F 67% 30.18 in 10.0 mi North - - 0.00 in   Clear
10:55 AM 6.8 °F -0.4 °F 72% 30.17 in 10.0 mi North - - 0.00 in   Clear
11:15 AM 8.6 °F -0.4 °F 67% 30.16 in 10.0 mi North - - 0.00 in   Clear
11:35 AM 8.6 °F 1.4 °F 73% 30.15 in 10.0 mi North - - 0.00 in   Clear
11:55 AM 10.4 °F 3.2 °F 73% 30.14 in 10.0 mi North - - 0.00 in   Clear
12:15 PM 10.4 °F 3.2 °F 73% 30.13 in 10.0 mi North - - 0.00 in   Clear
12:35 PM 10.4 °F 3.2 °F 73% 30.13 in 10.0 mi North - - 0.00 in   Clear
12:55 PM 10.4 °F 3.2 °F 73% 30.12 in 10.0 mi North - - 0.00 in   Clear
1:15 PM 12.2 °F 3.2 °F 67% 30.12 in 10.0 mi North - - 0.00 in   Partly Cloudy
1:35 PM 12.2 °F 5.0 °F 73% 30.11 in 10.0 mi North - - 0.00 in   Partly Cloudy
1:55 PM 12.2 °F 5.0 °F 73% 30.11 in 10.0 mi North - - 0.00 in   Clear
2:15 PM 14.0 °F 5.0 °F 67% 30.12 in 10.0 mi North - - 0.00 in   Clear
2:35 PM 14.0 °F 5.0 °F 67% 30.12 in 10.0 mi North - - 0.00 in   Clear
2:55 PM 14.0 °F 5.0 °F 67% 30.12 in 10.0 mi North - - 0.00 in   Clear
3:15 PM 14.0 °F 5.0 °F 67% 30.13 in 10.0 mi North - - 0.00 in   Clear
3:35 PM 12.2 °F 5.0 °F 73% 30.13 in 10.0 mi North - - 0.00 in   Clear
3:55 PM 12.2 °F 5.0 °F 73% 30.14 in 10.0 mi North - - 0.00 in   Partly Cloudy
4:15 PM 12.2 °F 5.0 °F 73% 30.14 in 10.0 mi North - - 0.00 in   Partly Cloudy
4:35 PM 12.2 °F 5.0 °F 73% 30.15 in 10.0 mi North - - 0.00 in   Partly Cloudy
4:55 PM 12.2 °F 5.0 °F 73% 30.15 in 10.0 mi North - - 0.00 in   Scattered Clouds
5:15 PM 12.2 °F 3.2 °F 67% 30.15 in 10.0 mi North - - 0.00 in   Partly Cloudy
5:35 PM 10.4 °F 3.2 °F 73% 30.16 in 10.0 mi North - - 0.00 in   Clear
5:55 PM 10.4 °F 3.2 °F 73% 30.16 in 10.0 mi North - - 0.00 in   Clear
6:15 PM 8.6 °F 1.4 °F 73% 30.17 in 10.0 mi North - - 0.00 in   Clear
6:35 PM 8.6 °F 1.4 °F 73% 30.17 in 10.0 mi North - - 0.00 in   Clear
6:55 PM 6.8 °F 1.4 °F 79% 30.17 in 10.0 mi North - - 0.00 in   Scattered Clouds
7:15 PM 6.8 °F 1.4 °F 79% 30.17 in 10.0 mi North - - 0.00 in   Mostly Cloudy
7:35 PM 6.8 °F 1.4 °F 79% 30.18 in 10.0 mi North - - 0.00 in   Partly Cloudy
7:55 PM 5.0 °F -0.4 °F 78% 30.19 in 10.0 mi North - - 0.00 in   Clear
8:15 PM 5.0 °F -0.4 °F 78% 30.19 in 10.0 mi North - - 0.00 in   Clear
8:35 PM 3.2 °F -0.4 °F 85% 30.20 in 10.0 mi North - - 0.00 in   Partly Cloudy
8:55 PM 3.2 °F -2.2 °F 78% 30.20 in 10.0 mi North - - 0.00 in   Mostly Cloudy
9:15 PM 3.2 °F -2.2 °F 78% 30.20 in 10.0 mi North - - 0.00 in   Scattered Clouds
9:35 PM 3.2 °F -4.0 °F 72% 30.21 in 10.0 mi North - - 0.00 in   Partly Cloudy
9:55 PM 1.4 °F -4.0 °F 78% 30.21 in 10.0 mi North - - 0.00 in   Partly Cloudy
10:15 PM 1.4 °F -4.0 °F 78% 30.20 in 10.0 mi North - - 0.00 in   Mostly Cloudy
10:35 PM 5.0 °F -0.4 °F 78% 30.21 in 10.0 mi North - - 0.00 in   Overcast
10:55 PM 5.0 °F -0.4 °F 78% 30.22 in 10.0 mi North - - 0.00 in   Overcast
11:15 PM 5.0 °F -0.4 °F 78% 30.23 in 10.0 mi North - - 0.00 in   Overcast
11:35 PM 5.0 °F -2.2 °F 72% 30.24 in 10.0 mi North - - 0.00 in   Mostly Cloudy
11:55 PM 3.2 °F -4.0 °F 72% 30.24 in 10.0 mi North - - 0.00 in   Partly Cloudy